Flag for Poland Weather past 2 weeks in Dąbrowa Górnicza, Poland

Now
93 °F

Sunny.


Feels Like: 91 °F
Forecast: 62 / 92 °F
Wind: 14 mph from West

Location: Katowice Airport

Current Time: Aug 31, 2015 at 5:32:57 PM

Latest Report: Aug 31, 2015 at 5:00 PM


Visibility: 10 mi

Pressure: 29.92 "Hg

Humidity: 26%

Dew point: 54 °F

Location of Dąbrowa GórniczaLocation

Historic Weather in Dąbrowa Górnicza — Graph

°F

Dąbrowa Górnicza temperature yesterday

Maximum temperature yesterday: 93 °F (at 3:30 PM)
Minimum temperature yesterday: 57 °F (at 1:30 AM)
Average temperature yesterday: 76 °F

Past Weeks' High & Low Weather Summary

 TemperatureHumidityPressure
High95 °F (Aug 31, 4:00 PM)100% (Aug 16, 11:00 PM)30.30 "Hg (Aug 16, 11:00 PM)
Low46 °F (Aug 22, 6:00 AM)24% (Aug 31, 1:30 PM)29.80 "Hg (Aug 17, 2:00 AM)
Average67 °F62%30.07 "Hg
* Reported Aug 16 4:00 PM — Aug 31 4:30 PM, Dąbrowa Górnicza, Weather by CustomWeather, © 2015

Note: Actual official high and low records may vary slightly from our data, if they occured in-between our weather recording intervals... More about our weather records

Advertising

Dąbrowa Górnicza weather history for previous 24 hours

 ConditionsComfort  
Time TempWeatherWind HumidityBarometerVisibility
4:30 PM
Mon, Aug 31
93 °FPassing clouds.12 mph26%29.95 "HgN/A
4:00 PM95 °FPassing clouds.12 mph25%29.95 "HgN/A
3:30 PM93 °FSunny.16 mph26%29.95 "Hg10 mi
3:00 PM93 °FPassing clouds.9 mph28%29.95 "HgN/A
2:30 PM93 °FPassing clouds.10 mph28%29.98 "HgN/A
2:00 PM93 °FPassing clouds.9 mph26%29.98 "HgN/A
1:30 PM93 °FPassing clouds.14 mph24%29.98 "HgN/A
1:00 PM91 °FPassing clouds.14 mph28%30.01 "HgN/A
12:30 PM91 °FPassing clouds.13 mph30%30.01 "HgN/A
12:00 PM90 °FPassing clouds.14 mph33%30.01 "HgN/A
11:30 AM90 °FPassing clouds.14 mph31%30.04 "HgN/A
11:00 AM88 °FPassing clouds.10 mph35%30.04 "HgN/A
10:30 AM86 °FSunny.10 mph38%30.04 "Hg10 mi
10:00 AM84 °FSunny.9 mph43%30.04 "Hg10 mi
9:30 AM82 °FPassing clouds.8 mph48%30.04 "HgN/A
9:00 AM81 °FSunny.7 mph51%30.04 "Hg10 mi
8:30 AM77 °FPassing clouds.5 mph57%30.04 "HgN/A
8:00 AM73 °FSunny.6 mph65%30.04 "Hg10 mi
7:30 AM72 °FSunny.6 mph69%30.04 "Hg10 mi
7:00 AM68 °FPassing clouds.6 mph78%30.04 "HgN/A
6:30 AM64 °FPassing clouds.5 mph83%30.07 "HgN/A
6:00 AM64 °FClear.5 mph83%30.07 "Hg10 mi
5:30 AM64 °FClear.6 mph83%30.07 "Hg10 mi
5:00 AM64 °FClear.6 mph83%30.04 "Hg10 mi
4:30 AM64 °FClear.5 mph83%30.07 "Hg10 mi
4:00 AM64 °FClear.5 mph83%30.07 "Hg10 mi
3:30 AM64 °FClear.3 mph83%30.07 "Hg10 mi
3:00 AM64 °FClear.5 mph83%30.07 "Hg10 mi
2:30 AM66 °FClear.2 mph78%30.07 "Hg10 mi
2:00 AM64 °FClear.2 mph83%30.07 "Hg10 mi
1:30 AM68 °FPassing clouds.3 mph73%30.07 "HgN/A
1:00 AM66 °FClear.5 mph78%30.09 "Hg10 mi
12:30 AM66 °FClear.3 mph78%30.09 "Hg10 mi
12:00 AM68 °FPassing clouds.3 mph73%30.09 "HgN/A
11:30 PM
Sun, Aug 30
70 °FClear.2 mph69%30.09 "Hg10 mi
11:00 PM73 °FClear.2 mph57%30.09 "Hg10 mi
10:30 PM70 °FPassing clouds.3 mph69%30.09 "HgN/A
9:30 PM75 °FClear.2 mph57%30.09 "Hg10 mi
9:00 PM75 °FClear.1 mph57%30.09 "Hg10 mi
8:30 PM77 °FSunny.1 mph54%30.09 "Hg10 mi
8:00 PM81 °FSunny.6 mph45%30.09 "Hg10 mi
7:30 PM82 °FSunny.6 mph42%30.09 "Hg10 mi
7:00 PM90 °FSunny.10 mph33%30.07 "Hg10 mi
6:30 PM91 °FSunny.8 mph32%30.07 "Hg10 mi
6:00 PM91 °FSunny.7 mph34%30.07 "Hg10 mi
5:30 PM91 °FPassing clouds.8 mph34%30.07 "HgN/A
5:00 PM93 °FPassing clouds.7 mph32%30.09 "HgN/A
Weather by CustomWeather, © 2015

See weather overviewHow to use our weather pages